Time,TemperatureF,DewpointF,PressureIn,WindDirection,WindDirectionDegrees,WindSpeedMPH,WindSpeedGustMPH,Humidity,HourlyPrecipIn,Conditions,Clouds,dailyrainin,SoftwareType,DateUTC
2013-03-23 00:02:00,46.0,35.0,29.90,WNW,295,35.0,48.0,65,0.00,,,0.00,,2013-03-23 07:02:00,
2013-03-23 00:11:00,46.0,35.0,29.90,WNW,295,35.0,48.0,65,0.00,,,0.00,,2013-03-23 07:11:00,
2013-03-23 00:22:00,46.0,35.0,29.91,WNW,293,32.0,50.0,64,0.00,,,0.00,,2013-03-23 07:22:00,
2013-03-23 00:32:00,46.0,35.0,29.91,WNW,294,30.0,40.0,65,0.00,,,0.00,,2013-03-23 07:32:00,
2013-03-23 00:41:00,46.0,35.0,29.91,WNW,294,30.0,40.0,65,0.00,,,0.00,,2013-03-23 07:41:00,
2013-03-23 00:52:00,46.0,35.0,29.91,NW,304,19.0,33.0,64,0.00,,,0.00,,2013-03-23 07:52:00,
2013-03-23 01:02:00,46.0,35.0,29.91,WNW,290,30.0,38.0,64,0.00,,,0.00,,2013-03-23 08:02:00,
2013-03-23 01:12:00,46.0,35.0,29.91,WNW,290,30.0,38.0,64,0.00,,,0.00,,2013-03-23 08:12:00,
2013-03-23 01:22:00,46.0,34.0,29.90,WNW,292,31.0,38.0,63,0.00,,,0.00,,2013-03-23 08:22:00,
2013-03-23 01:32:00,46.0,34.0,29.91,WNW,298,24.0,40.0,62,0.00,,,0.00,,2013-03-23 08:32:00,
2013-03-23 01:41:00,46.0,34.0,29.91,WNW,298,24.0,40.0,62,0.00,,,0.00,,2013-03-23 08:41:00,
2013-03-23 01:52:00,46.0,33.0,29.91,WNW,291,27.0,38.0,60,0.00,,,0.00,,2013-03-23 08:52:00,
2013-03-23 02:01:00,48.0,28.0,29.91,NW,305,18.0,35.0,46,0.00,,,0.00,,2013-03-23 09:01:00,
2013-03-23 02:11:00,48.0,28.0,29.91,NW,305,18.0,35.0,46,0.00,,,0.00,,2013-03-23 09:11:00,
2013-03-23 02:21:00,48.0,27.0,29.92,WNW,297,20.0,30.0,44,0.00,,,0.00,,2013-03-23 09:21:00,
2013-03-23 02:32:00,49.0,25.0,29.93,NW,311,11.0,24.0,38,0.00,,,0.00,,2013-03-23 09:32:00,
2013-03-23 02:42:00,49.0,25.0,29.93,NW,311,11.0,24.0,38,0.00,,,0.00,,2013-03-23 09:42:00,
2013-03-23 02:53:00,46.0,32.0,29.94,SW,232,18.0,34.0,57,0.00,,,0.00,,2013-03-23 09:53:00,
2013-03-23 03:02:00,45.0,33.0,29.93,SW,234,23.0,38.0,63,0.00,,,0.00,,2013-03-23 10:02:00,
2013-03-23 03:12:00,45.0,33.0,29.93,SW,234,23.0,38.0,63,0.00,,,0.00,,2013-03-23 10:12:00,
2013-03-23 03:22:00,45.0,32.0,29.93,SW,228,22.0,36.0,59,0.00,,,0.00,,2013-03-23 10:22:00,
2013-03-23 03:33:00,49.0,26.0,29.93,WNW,282,12.0,17.0,40,0.00,,,0.00,,2013-03-23 10:33:00,
2013-03-23 03:42:00,49.0,26.0,29.93,WNW,282,12.0,17.0,40,0.00,,,0.00,,2013-03-23 10:42:00,
2013-03-23 03:52:00,49.0,25.0,29.93,WNW,283,12.0,25.0,38,0.00,,,0.00,,2013-03-23 10:52:00,
2013-03-23 04:02:00,48.0,27.0,29.93,WNW,295,13.0,25.0,44,0.00,,,0.00,,2013-03-23 11:02:00,
2013-03-23 04:11:00,48.0,27.0,29.93,WNW,295,13.0,25.0,44,0.00,,,0.00,,2013-03-23 11:11:00,
2013-03-23 04:21:00,49.0,23.0,29.92,NW,319,6.0,22.0,36,0.00,,,0.00,,2013-03-23 11:21:00,
2013-03-23 04:32:00,50.0,19.0,29.92,West,261,4.0,20.0,29,0.00,,,0.00,,2013-03-23 11:32:00,
2013-03-23 04:41:00,50.0,19.0,29.92,West,261,4.0,20.0,29,0.00,,,0.00,,2013-03-23 11:41:00,
2013-03-23 04:52:00,51.0,18.0,29.93,WNW,300,9.0,19.0,27,0.00,,,0.00,,2013-03-23 11:52:00,
2013-03-23 05:01:00,50.0,20.0,29.93,NW,304,9.0,16.0,30,0.00,,,0.00,,2013-03-23 12:01:00,
2013-03-23 05:12:00,50.0,20.0,29.93,NW,304,9.0,16.0,30,0.00,,,0.00,,2013-03-23 12:12:00,
2013-03-23 05:21:00,49.0,20.0,29.94,North,357,1.0,5.0,31,0.00,,,0.00,,2013-03-23 12:21:00,
2013-03-23 05:32:00,46.0,27.0,29.95,SW,226,20.0,23.0,47,0.00,,,0.00,,2013-03-23 12:32:00,
2013-03-23 05:42:00,46.0,27.0,29.95,SW,226,20.0,23.0,47,0.00,,,0.00,,2013-03-23 12:42:00,
2013-03-23 05:52:00,45.0,27.0,29.95,WSW,241,16.0,29.0,48,0.00,,,0.00,,2013-03-23 12:52:00,
2013-03-23 06:01:00,45.0,27.0,29.96,WSW,240,22.0,30.0,48,0.00,,,0.00,,2013-03-23 13:01:00,
2013-03-23 06:11:00,45.0,27.0,29.96,WSW,240,22.0,30.0,48,0.00,,,0.00,,2013-03-23 13:11:00,
2013-03-23 06:21:00,45.0,27.0,29.96,WSW,243,19.0,28.0,50,0.00,,,0.00,,2013-03-23 13:21:00,
2013-03-23 06:32:00,44.0,27.0,29.96,WSW,243,20.0,27.0,51,0.00,,,0.00,,2013-03-23 13:32:00,
2013-03-23 06:42:00,44.0,27.0,29.96,WSW,243,20.0,27.0,51,0.00,,,0.00,,2013-03-23 13:42:00,
2013-03-23 06:53:00,44.0,28.0,29.97,WSW,249,19.0,27.0,52,0.00,,,0.00,,2013-03-23 13:53:00,
2013-03-23 07:02:00,44.0,28.0,29.98,WSW,249,20.0,28.0,52,0.00,,,0.00,,2013-03-23 14:02:00,
2013-03-23 07:11:00,44.0,28.0,29.98,WSW,249,20.0,28.0,52,0.00,,,0.00,,2013-03-23 14:11:00,
2013-03-23 07:21:00,43.0,28.0,29.98,WSW,252,17.0,25.0,55,0.00,,,0.00,,2013-03-23 14:21:00,
2013-03-23 07:31:00,42.0,28.0,29.99,WSW,245,18.0,27.0,57,0.00,,,0.00,,2013-03-23 14:31:00,
2013-03-23 07:42:00,42.0,28.0,29.99,WSW,245,18.0,27.0,57,0.00,,,0.00,,2013-03-23 14:42:00,
2013-03-23 08:02:00,43.0,27.0,30.00,WSW,245,14.0,21.0,53,0.00,,,0.00,,2013-03-23 15:02:00,
2013-03-23 08:11:00,43.0,27.0,30.00,WSW,245,14.0,21.0,53,0.00,,,0.00,,2013-03-23 15:11:00,
2013-03-23 08:22:00,44.0,28.0,30.01,WSW,251,15.0,22.0,53,0.00,,,0.00,,2013-03-23 15:22:00,
2013-03-23 08:32:00,45.0,28.0,30.01,WSW,240,14.0,20.0,52,0.00,,,0.00,,2013-03-23 15:32:00,
2013-03-23 08:43:00,45.0,28.0,30.01,WSW,240,14.0,20.0,52,0.00,,,0.00,,2013-03-23 15:43:00,
2013-03-23 08:52:00,45.0,29.0,30.03,SW,229,15.0,19.0,54,0.00,,,0.00,,2013-03-23 15:52:00,
2013-03-23 09:03:00,46.0,29.0,30.03,SW,229,15.0,19.0,52,0.00,,,0.00,,2013-03-23 16:03:00,
2013-03-23 09:12:00,46.0,29.0,30.03,SW,229,15.0,19.0,52,0.00,,,0.00,,2013-03-23 16:12:00,
2013-03-23 09:22:00,48.0,30.0,30.05,SW,225,12.0,17.0,49,0.00,,,0.00,,2013-03-23 16:22:00,
2013-03-23 09:32:00,50.0,30.0,30.05,WSW,242,11.0,17.0,46,0.00,,,0.00,,2013-03-23 16:32:00,
2013-03-23 09:42:00,50.0,30.0,30.05,WSW,242,11.0,17.0,46,0.00,,,0.00,,2013-03-23 16:42:00,
2013-03-23 09:53:00,53.0,28.0,30.06,WSW,240,8.0,13.0,38,0.00,,,0.00,,2013-03-23 16:53:00,
2013-03-23 10:02:00,54.0,26.0,30.06,WSW,245,6.0,11.0,34,0.00,,,0.00,,2013-03-23 17:02:00,
2013-03-23 10:11:00,54.0,26.0,30.06,South,180,4.0,10.0,34,0.00,,,0.00,,2013-03-23 17:11:00,
2013-03-23 10:21:00,54.0,26.0,30.06,South,180,4.0,10.0,34,0.00,,,0.00,,2013-03-23 17:21:00,
2013-03-23 10:32:00,55.0,26.0,30.06,ESE,107,7.0,10.0,32,0.00,,,0.00,,2013-03-23 17:32:00,
2013-03-23 10:42:00,55.0,26.0,30.06,ESE,107,7.0,10.0,32,0.00,,,0.00,,2013-03-23 17:42:00,
2013-03-23 10:51:00,56.0,25.0,30.07,East,96,9.0,11.0,30,0.00,,,0.00,,2013-03-23 17:51:00,
2013-03-23 11:02:00,56.0,25.0,30.07,East,100,8.0,14.0,30,0.00,,,0.00,,2013-03-23 18:02:00,
2013-03-23 11:11:00,56.0,25.0,30.07,East,100,8.0,14.0,30,0.00,,,0.00,,2013-03-23 18:11:00,
2013-03-23 11:21:00,56.0,24.0,30.06,East,94,4.0,11.0,29,0.00,,,0.00,,2013-03-23 18:21:00,
2013-03-23 11:31:00,56.0,23.0,30.07,East,87,2.0,10.0,28,0.00,,,0.00,,2013-03-23 18:31:00,
2013-03-23 11:42:00,56.0,23.0,30.07,East,87,2.0,10.0,28,0.00,,,0.00,,2013-03-23 18:42:00,
2013-03-23 11:52:00,57.0,22.0,30.06,East,97,6.0,10.0,26,0.00,,,0.00,,2013-03-23 18:52:00,
2013-03-23 12:02:00,58.0,20.0,30.06,East,87,5.0,14.0,23,0.00,,,0.00,,2013-03-23 19:02:00,
2013-03-23 12:12:00,58.0,20.0,30.06,East,87,5.0,14.0,23,0.00,,,0.00,,2013-03-23 19:12:00,
2013-03-23 12:22:00,58.0,19.0,30.06,East,92,4.0,10.0,22,0.00,,,0.00,,2013-03-23 19:22:00,
2013-03-23 12:32:00,58.0,18.0,30.06,East,79,5.0,13.0,21,0.00,,,0.00,,2013-03-23 19:32:00,
2013-03-23 12:42:00,58.0,18.0,30.06,East,79,5.0,13.0,21,0.00,,,0.00,,2013-03-23 19:42:00,
2013-03-23 12:52:00,59.0,17.0,30.05,East,87,6.0,14.0,19,0.00,,,0.00,,2013-03-23 19:52:00,
2013-03-23 13:02:00,60.0,12.0,30.05,East,92,7.0,13.0,15,0.00,,,0.00,,2013-03-23 20:02:00,
2013-03-23 13:22:00,59.0,8.0,30.05,ESE,120,6.0,10.0,13,0.00,,,0.00,,2013-03-23 20:22:00,
2013-03-23 13:32:00,59.0,10.0,30.05,East,85,9.0,14.0,14,0.00,,,0.00,,2013-03-23 20:32:00,
2013-03-23 13:42:00,59.0,10.0,30.05,East,85,9.0,14.0,14,0.00,,,0.00,,2013-03-23 20:42:00,
2013-03-23 13:52:00,60.0,12.0,30.05,SE,142,4.0,11.0,15,0.00,,,0.00,,2013-03-23 20:52:00,
2013-03-23 14:01:00,61.0,11.0,30.03,ENE,72,6.0,11.0,14,0.00,,,0.00,,2013-03-23 21:01:00,
2013-03-23 14:12:00,61.0,11.0,30.03,ENE,72,6.0,11.0,14,0.00,,,0.00,,2013-03-23 21:12:00,
2013-03-23 14:22:00,61.0,11.0,30.03,South,186,4.0,14.0,14,0.00,,,0.00,,2013-03-23 21:22:00,
2013-03-23 14:32:00,61.0,11.0,30.02,South,169,3.0,16.0,14,0.00,,,0.00,,2013-03-23 21:32:00,
2013-03-23 14:42:00,61.0,11.0,30.02,South,169,3.0,16.0,14,0.00,,,0.00,,2013-03-23 21:42:00,
2013-03-23 14:53:00,61.0,11.0,30.02,SSW,212,2.0,10.0,14,0.00,,,0.00,,2013-03-23 21:53:00,
2013-03-23 15:02:00,62.0,12.0,30.01,SSE,166,4.0,10.0,14,0.00,,,0.00,,2013-03-23 22:02:00,
2013-03-23 15:12:00,62.0,12.0,30.01,SSE,166,4.0,10.0,14,0.00,,,0.00,,2013-03-23 22:12:00,
2013-03-23 15:22:00,62.0,12.0,30.00,ESE,112,8.0,13.0,14,0.00,,,0.00,,2013-03-23 22:22:00,
2013-03-23 15:32:00,63.0,13.0,30.00,SSE,154,3.0,12.0,14,0.00,,,0.00,,2013-03-23 22:32:00,
2013-03-23 15:42:00,63.0,13.0,30.00,SSE,154,3.0,12.0,14,0.00,,,0.00,,2013-03-23 22:42:00,
2013-03-23 15:53:00,63.0,13.0,29.99,SE,146,6.0,10.0,14,0.00,,,0.00,,2013-03-23 22:53:00,
2013-03-23 16:01:00,63.0,15.0,29.99,SW,224,8.0,18.0,15,0.00,,,0.00,,2013-03-23 23:01:00,
2013-03-23 16:12:00,63.0,15.0,29.99,SW,224,8.0,18.0,15,0.00,,,0.00,,2013-03-23 23:12:00,
2013-03-23 16:22:00,65.0,20.0,29.98,WSW,242,13.0,23.0,18,0.00,,,0.00,,2013-03-23 23:22:00,
2013-03-23 16:32:00,65.0,22.0,29.97,WSW,254,17.0,26.0,19,0.00,,,0.00,,2013-03-23 23:32:00,
2013-03-23 16:42:00,65.0,22.0,29.97,WSW,254,17.0,26.0,19,0.00,,,0.00,,2013-03-23 23:42:00,
2013-03-23 16:52:00,64.0,15.0,29.97,West,264,13.0,26.0,15,0.00,,,0.00,,2013-03-23 23:52:00,
2013-03-23 17:01:00,64.0,18.0,29.97,WSW,252,16.0,22.0,17,0.00,,,0.00,,2013-03-24 00:01:00,
2013-03-23 17:11:00,64.0,18.0,29.97,WSW,252,16.0,22.0,17,0.00,,,0.00,,2013-03-24 00:11:00,
2013-03-23 17:22:00,63.0,18.0,29.97,WSW,248,16.0,26.0,17,0.00,,,0.00,,2013-03-24 00:22:00,
2013-03-23 17:32:00,62.0,22.0,29.97,WSW,248,16.0,26.0,21,0.00,,,0.00,,2013-03-24 00:32:00,
2013-03-23 17:41:00,62.0,22.0,29.97,WSW,248,16.0,26.0,21,0.00,,,0.00,,2013-03-24 00:41:00,
2013-03-23 17:52:00,61.0,22.0,29.97,WSW,247,19.0,26.0,22,0.00,,,0.00,,2013-03-24 00:52:00,
2013-03-23 18:01:00,60.0,21.0,29.97,West,268,13.0,28.0,22,0.00,,,0.00,,2013-03-24 01:01:00,
2013-03-23 18:11:00,60.0,21.0,29.97,West,268,13.0,28.0,22,0.00,,,0.00,,2013-03-24 01:11:00,
2013-03-23 18:22:00,59.0,14.0,29.96,WNW,285,19.0,26.0,17,0.00,,,0.00,,2013-03-24 01:22:00,
2013-03-23 18:32:00,59.0,16.0,29.96,West,278,16.0,28.0,18,0.00,,,0.00,,2013-03-24 01:32:00,
2013-03-23 18:41:00,59.0,16.0,29.96,West,278,16.0,28.0,18,0.00,,,0.00,,2013-03-24 01:41:00,
2013-03-23 18:52:00,57.0,17.0,29.96,West,279,25.0,31.0,21,0.00,,,0.00,,2013-03-24 01:52:00,
2013-03-23 19:02:00,56.0,20.0,29.96,West,275,22.0,32.0,24,0.00,,,0.00,,2013-03-24 02:02:00,
2013-03-23 19:11:00,56.0,20.0,29.96,West,275,22.0,32.0,24,0.00,,,0.00,,2013-03-24 02:11:00,
2013-03-23 19:21:00,56.0,16.0,29.97,WNW,291,24.0,31.0,20,0.00,,,0.00,,2013-03-24 02:21:00,
2013-03-23 19:32:00,55.0,17.0,29.96,WNW,289,27.0,35.0,22,0.00,,,0.00,,2013-03-24 02:32:00,
2013-03-23 19:42:00,55.0,17.0,29.96,WNW,289,27.0,35.0,22,0.00,,,0.00,,2013-03-24 02:42:00,
2013-03-23 19:52:00,54.0,19.0,29.96,WNW,290,25.0,36.0,25,0.00,,,0.00,,2013-03-24 02:52:00,
2013-03-23 20:02:00,54.0,18.0,29.96,WNW,293,25.0,36.0,24,0.00,,,0.00,,2013-03-24 03:02:00,
2013-03-23 20:11:00,54.0,18.0,29.96,WNW,293,25.0,36.0,24,0.00,,,0.00,,2013-03-24 03:11:00,
2013-03-23 20:21:00,54.0,16.0,29.96,WNW,291,28.0,38.0,22,0.00,,,0.00,,2013-03-24 03:21:00,
2013-03-23 20:32:00,54.0,16.0,29.97,WNW,292,26.0,36.0,22,0.00,,,0.00,,2013-03-24 03:32:00,
2013-03-23 20:42:00,54.0,16.0,29.97,WNW,292,26.0,36.0,22,0.00,,,0.00,,2013-03-24 03:42:00,
2013-03-23 20:53:00,54.0,16.0,29.96,WNW,293,26.0,36.0,22,0.00,,,0.00,,2013-03-24 03:53:00,
2013-03-23 21:02:00,54.0,14.0,29.96,WNW,293,29.0,39.0,20,0.00,,,0.00,,2013-03-24 04:02:00,
2013-03-23 21:12:00,54.0,14.0,29.96,WNW,293,29.0,39.0,20,0.00,,,0.00,,2013-03-24 04:12:00,
2013-03-23 21:22:00,54.0,15.0,29.97,WNW,293,27.0,36.0,21,0.00,,,0.00,,2013-03-24 04:22:00,
2013-03-23 21:32:00,54.0,16.0,29.98,WNW,295,30.0,41.0,22,0.00,,,0.00,,2013-03-24 04:32:00,
2013-03-23 21:42:00,54.0,16.0,29.98,WNW,295,30.0,41.0,22,0.00,,,0.00,,2013-03-24 04:42:00,
2013-03-23 21:52:00,53.0,16.0,29.98,WNW,292,27.0,39.0,23,0.00,,,0.00,,2013-03-24 04:52:00,
2013-03-23 22:02:00,53.0,17.0,29.99,WNW,288,27.0,37.0,24,0.00,,,0.00,,2013-03-24 05:02:00,
2013-03-23 22:12:00,53.0,17.0,29.99,WNW,288,27.0,37.0,24,0.00,,,0.00,,2013-03-24 05:12:00,
2013-03-23 22:22:00,53.0,15.0,29.98,WNW,292,27.0,37.0,22,0.00,,,0.00,,2013-03-24 05:22:00,
2013-03-23 22:32:00,53.0,16.0,29.99,WNW,292,25.0,34.0,23,0.00,,,0.00,,2013-03-24 05:32:00,
2013-03-23 22:41:00,53.0,16.0,29.99,WNW,292,25.0,34.0,23,0.00,,,0.00,,2013-03-24 05:41:00,
2013-03-23 22:52:00,53.0,13.0,30.00,WNW,294,25.0,34.0,20,0.00,,,0.00,,2013-03-24 05:52:00,
2013-03-23 23:01:00,53.0,15.0,30.00,WNW,286,25.0,34.0,22,0.00,,,0.00,,2013-03-24 06:01:00,
2013-03-23 23:11:00,53.0,15.0,30.00,WNW,286,25.0,34.0,22,0.00,,,0.00,,2013-03-24 06:11:00,
2013-03-23 23:21:00,53.0,14.0,30.00,WNW,289,23.0,34.0,21,0.00,,,0.00,,2013-03-24 06:21:00,
2013-03-23 23:32:00,53.0,14.0,29.99,WNW,286,25.0,34.0,21,0.00,,,0.00,,2013-03-24 06:32:00,
2013-03-23 23:42:00,53.0,14.0,29.99,WNW,286,25.0,34.0,21,0.00,,,0.00,,2013-03-24 06:42:00,
2013-03-23 23:51:00,53.0,12.0,29.98,WNW,291,25.0,31.0,19,0.00,,,0.00,,2013-03-24 06:51:00,